| time (UTC) | temp C | wind direction | speed KPH | gust KPH | rain 1hr cm | rain 24hr cm | rain mn cm | humidity % | barometer mb |
| 20260505234027 | 6 | 53 | 8.0 | 30.6 | 0.00 | 0.00 | 0.00 | 53 | 1015.2 |
| 20260505233528 | 6 | 5 | 14.5 | 30.6 | 0.00 | 0.00 | 0.00 | 52 | 1015.3 |
| 20260505233037 | 6 | 53 | 19.3 | 30.6 | 0.00 | 0.00 | 0.00 | 51 | 1015.0 |
| 20260505232526 | 6 | 44 | 16.1 | 29.0 | 0.00 | 0.00 | 0.00 | 51 | 1015.1 |
| 20260505232024 | 6 | 41 | 12.9 | 32.2 | 0.00 | 0.00 | 0.00 | 49 | 1015.0 |
| 20260505231537 | 6 | 27 | 19.3 | 32.2 | 0.00 | 0.00 | 0.00 | 51 | 1014.7 |
| 20260505231024 | 6 | 20 | 16.1 | 30.6 | 0.00 | 0.00 | 0.00 | 53 | 1014.7 |
| 20260505230524 | 6 | 8 | 17.7 | 29.0 | 0.00 | 0.00 | 0.00 | 52 | 1014.6 |
| 20260505230058 | 6 | 75 | 16.1 | 30.6 | 0.00 | 0.00 | 0.00 | 52 | 1014.8 |
| 20260505225528 | 6 | 27 | 12.9 | 33.8 | 0.00 | 0.00 | 0.00 | 52 | 1014.9 |
| 20260505225024 | 6 | 354 | 19.3 | 33.8 | 0.00 | 0.00 | 0.00 | 51 | 1014.8 |
| 20260505224541 | 6 | 29 | 19.3 | 33.8 | 0.00 | 0.00 | 0.00 | 52 | 1014.8 |
| 20260505224023 | 6 | 20 | 19.3 | 33.8 | 0.00 | 0.00 | 0.00 | 52 | 1014.8 |
| 20260505223525 | 6 | 41 | 20.9 | 33.8 | 0.00 | 0.00 | 0.00 | 52 | 1014.6 |
| 20260505223039 | 6 | 39 | 14.5 | 33.8 | 0.00 | 0.00 | 0.00 | 49 | 1014.6 |
| 20260505222526 | 7 | 34 | 19.3 | 33.8 | 0.00 | 0.00 | 0.00 | 45 | 1014.5 |
| 20260505222025 | 8 | 53 | 12.9 | 32.2 | 0.00 | 0.00 | 0.00 | 42 | 1014.4 |
| 20260505221536 | 8 | 21 | 14.5 | 33.8 | 0.00 | 0.00 | 0.00 | 43 | 1014.3 |
| 20260505221024 | 7 | 49 | 9.7 | 33.8 | 0.00 | 0.00 | 0.00 | 45 | 1014.4 |
| 20260505220523 | 7 | 43 | 16.1 | 38.6 | 0.00 | 0.00 | 0.00 | 47 | 1014.2 |
| 20260505220039 | 7 | 30 | 12.9 | 38.6 | 0.00 | 0.00 | 0.00 | 47 | 1014.2 |
| 20260505215523 | 7 | 32 | 19.3 | 35.4 | 0.00 | 0.00 | 0.00 | 47 | 1014.2 |
| 20260505215023 | 7 | 53 | 14.5 | 37.0 | 0.00 | 0.00 | 0.00 | 49 | 1014.2 |
| 20260505214542 | 7 | 41 | 22.5 | 37.0 | 0.00 | 0.00 | 0.00 | 52 | 1014.3 |
| 20260505214024 | 7 | 14 | 20.9 | 35.4 | 0.00 | 0.00 | 0.00 | 49 | 1014.2 |
| 20260505213525 | 7 | 14 | 22.5 | 35.4 | 0.00 | 0.00 | 0.00 | 47 | 1014.3 |
| 20260505213039 | 8 | 46 | 16.1 | 25.7 | 0.00 | 0.00 | 0.00 | 48 | 1014.5 |
| 20260505212524 | 8 | 9 | 11.3 | 22.5 | 0.00 | 0.00 | 0.00 | 34 | 1014.4 |
| 20260505212023 | 8 | 322 | 8.0 | 25.7 | 0.00 | 0.00 | 0.00 | 45 | 1014.5 |
| 20260505211540 | 8 | 14 | 12.9 | 25.7 | 0.00 | 0.00 | 0.00 | 45 | 1014.3 |
| 20260505211022 | 8 | 49 | 12.9 | 24.1 | 0.00 | 0.00 | 0.00 | 43 | 1014.4 |
| 20260505210528 | 8 | 32 | 12.9 | 22.5 | 0.00 | 0.00 | 0.00 | 42 | 1014.4 |
| 20260505210042 | 8 | 66 | 6.4 | 19.3 | 0.00 | 0.00 | 0.00 | 43 | 1014.5 |
| 20260505205525 | 9 | 331 | 11.3 | 19.3 | 0.00 | 0.00 | 0.00 | 45 | 1014.6 |
| 20260505205028 | 9 | 359 | 9.7 | 17.7 | 0.00 | 0.00 | 0.00 | 34 | 1014.6 |
| 20260505204545 | 9 | 354 | 8.0 | 20.9 | 0.00 | 0.00 | 0.00 | 38 | 1014.5 |
| 20260505204023 | 8 | 356 | 8.0 | 32.2 | 0.00 | 0.00 | 0.00 | 43 | 1014.6 |
| 20260505203525 | 7 | 5 | 19.3 | 32.2 | 0.00 | 0.00 | 0.00 | 51 | 1014.9 |
| 20260505203052 | 7 | 6 | 14.5 | 29.0 | 0.00 | 0.00 | 0.00 | 53 | 1014.8 |
| 20260505202523 | 7 | 61 | 12.9 | 35.4 | 0.00 | 0.00 | 0.00 | 57 | 1014.8 |
| 20260505202023 | 6 | 28 | 17.7 | 35.4 | 0.00 | 0.00 | 0.00 | 56 | 1014.9 |
| 20260505201541 | 6 | 54 | 20.9 | 33.8 | 0.00 | 0.00 | 0.00 | 56 | 1015.0 |
| 20260505201024 | 7 | 65 | 20.9 | 33.8 | 0.00 | 0.00 | 0.00 | 55 | 1015.0 |
| 20260505200524 | 8 | 43 | 14.5 | 32.2 | 0.00 | 0.00 | 0.00 | 52 | 1015.0 |
| 20260505200038 | 9 | 338 | 14.5 | 27.4 | 0.00 | 0.00 | 0.00 | 42 | 1015.0 |
| 20260505195522 | 8 | 359 | 14.5 | 29.0 | 0.00 | 0.00 | 0.00 | 45 | 1014.9 |
| 20260505195022 | 8 | 321 | 11.3 | 32.2 | 0.00 | 0.00 | 0.00 | 46 | 1015.1 |
| 20260505194550 | 8 | 354 | 16.1 | 32.2 | 0.00 | 0.00 | 0.00 | 43 | 1014.9 |
| 20260505194026 | 8 | 342 | 16.1 | 29.0 | 0.00 | 0.00 | 0.00 | 46 | 1014.9 |
| 20260505193523 | 8 | 360 | 11.3 | 25.7 | 0.00 | 0.00 | 0.00 | 46 | 1014.9 |
| 20260505193038 | 8 | 319 | 9.7 | 24.1 | 0.00 | 0.00 | 0.00 | 45 | 1014.8 |
| 20260505192526 | 8 | 337 | 8.0 | 22.5 | 0.00 | 0.00 | 0.00 | 47 | 1015.0 |
| 20260505192024 | 8 | 341 | 12.9 | 27.4 | 0.00 | 0.00 | 0.00 | 46 | 1015.1 |
| 20260505191553 | 8 | 328 | 14.5 | 27.4 | 0.00 | 0.00 | 0.00 | 46 | 1015.0 |
| 20260505191025 | 8 | 345 | 14.5 | 27.4 | 0.00 | 0.00 | 0.00 | 44 | 1015.2 |
| 20260505190527 | 8 | 324 | 12.9 | 27.4 | 0.00 | 0.00 | 0.00 | 46 | 1015.1 |
| 20260505190041 | 8 | 347 | 12.9 | 27.4 | 0.00 | 0.00 | 0.00 | 43 | 1015.1 |
| 20260505185523 | 8 | 357 | 12.9 | 33.8 | 0.00 | 0.00 | 0.00 | 42 | 1015.2 |
| 20260505185025 | 8 | 342 | 14.5 | 33.8 | 0.00 | 0.00 | 0.00 | 41 | 1015.2 |
| 20260505184538 | 8 | 355 | 14.5 | 25.7 | 0.00 | 0.00 | 0.00 | 42 | 1015.1 |
| 20260505184025 | 8 | 332 | 8.0 | 25.7 | 0.00 | 0.00 | 0.00 | 43 | 1015.1 |
| 20260505183526 | 8 | 288 | 9.7 | 22.5 | 0.00 | 0.00 | 0.00 | 43 | 1015.2 |
| 20260505183043 | 8 | 323 | 12.9 | 22.5 | 0.00 | 0.00 | 0.00 | 44 | 1015.3 |
| 20260505182523 | 8 | 292 | 8.0 | 24.1 | 0.00 | 0.00 | 0.00 | 44 | 1015.3 |
| 20260505182024 | 8 | 332 | 8.0 | 24.1 | 0.00 | 0.00 | 0.00 | 44 | 1015.4 |
| 20260505181538 | 7 | 283 | 11.3 | 24.1 | 0.00 | 0.00 | 0.00 | 44 | 1015.4 |
| 20260505181025 | 8 | 322 | 9.7 | 24.1 | 0.00 | 0.00 | 0.00 | 44 | 1015.4 |
| 20260505180523 | 8 | 356 | 12.9 | 30.6 | 0.00 | 0.00 | 0.00 | 44 | 1015.4 |
| 20260505180047 | 8 | 290 | 9.7 | 30.6 | 0.00 | 0.00 | 0.00 | 46 | 1015.3 |
| 20260505175526 | 7 | 308 | 9.7 | 30.6 | 0.00 | 0.00 | 0.00 | 44 | 1015.4 |
| 20260505175026 | 7 | 330 | 9.7 | 22.5 | 0.00 | 0.00 | 0.00 | 45 | 1015.6 |
| 20260505174540 | 7 | 353 | 8.0 | 22.5 | 0.00 | 0.00 | 0.00 | 46 | 1015.6 |
| 20260505174022 | 7 | 347 | 9.7 | 20.9 | 0.00 | 0.00 | 0.00 | 45 | 1015.6 |
| 20260505173526 | 8 | 334 | 8.0 | 22.5 | 0.00 | 0.00 | 0.00 | 47 | 1015.7 |
| 20260505173036 | 7 | 340 | 9.7 | 22.5 | 0.00 | 0.00 | 0.00 | 48 | 1015.7 |
| 20260505172522 | 7 | 339 | 9.7 | 22.5 | 0.00 | 0.00 | 0.00 | 51 | 1015.7 |
| 20260505172022 | 6 | 306 | 8.0 | 27.4 | 0.00 | 0.00 | 0.00 | 50 | 1015.7 |
| 20260505171538 | 6 | 360 | 14.5 | 27.4 | 0.00 | 0.00 | 0.00 | 49 | 1015.8 |
| 20260505171024 | 6 | 343 | 9.7 | 24.1 | 0.00 | 0.00 | 0.00 | 48 | 1015.9 |
| 20260505170525 | 6 | 343 | 9.7 | 24.1 | 0.00 | 0.00 | 0.00 | 46 | 1015.7 |
| 20260505170037 | 6 | 345 | 11.3 | 24.1 | 0.00 | 0.00 | 0.00 | 44 | 1015.8 |
| 20260505165523 | 7 | 335 | 8.0 | 22.5 | 0.00 | 0.00 | 0.00 | 44 | 1015.8 |
| 20260505165023 | 7 | 357 | 11.3 | 22.5 | 0.00 | 0.00 | 0.00 | 43 | 1015.9 |
| 20260505164536 | 7 | 359 | 9.7 | 19.3 | 0.00 | 0.00 | 0.00 | 43 | 1016.0 |
| 20260505164024 | 7 | 352 | 8.0 | 19.3 | 0.00 | 0.00 | 0.00 | 44 | 1016.0 |
| 20260505163523 | 7 | 356 | 11.3 | 19.3 | 0.00 | 0.00 | 0.00 | 43 | 1016.0 |
| 20260505163037 | 6 | 321 | 8.0 | 27.4 | 0.00 | 0.00 | 0.00 | 42 | 1015.8 |
| 20260505162524 | 7 | 352 | 8.0 | 27.4 | 0.00 | 0.00 | 0.00 | 41 | 1015.9 |
| 20260505162023 | 7 | 351 | 9.7 | 25.7 | 0.00 | 0.00 | 0.00 | 43 | 1015.8 |
| 20260505161537 | 7 | 302 | 9.7 | 22.5 | 0.00 | 0.00 | 0.00 | 42 | 1016.0 |
| 20260505161023 | 7 | 321 | 8.0 | 19.3 | 0.00 | 0.00 | 0.00 | 42 | 1015.9 |
| 20260505160524 | 7 | 357 | 9.7 | 19.3 | 0.00 | 0.00 | 0.00 | 41 | 1015.8 |
| 20260505153036 | 7 | 35 | 3.2 | 9.7 | 0.00 | 0.00 | 0.00 | 43 | 1016.0 |
| 20260505152524 | 7 | 338 | 1.6 | 8.0 | 0.00 | 0.00 | 0.00 | 44 | 1016.1 |
| 20260505152026 | 6 | 34 | 1.6 | 6.4 | 0.00 | 0.00 | 0.00 | 48 | 1016.2 |
| 20260505151540 | 6 | 256 | 1.6 | 6.4 | 0.00 | 0.00 | 0.00 | 48 | 1016.2 |
| 20260505151026 | 6 | 127 | 1.6 | 6.4 | 0.00 | 0.00 | 0.00 | 51 | 1016.2 |
| 20260505150523 | 5 | 175 | 1.6 | 6.4 | 0.00 | 0.00 | 0.00 | 50 | 1016.2 |
| 20260505140525 | 3 | 236 | 3.2 | 6.4 | 0.00 | 0.00 | 0.00 | 60 | 1016.6 |
| 20260505125023 | 1 | 257 | 1.6 | 4.8 | 0.00 | 0.00 | 0.00 | 70 | 1015.8 |
| 20260505124550 | 0 | 198 | 1.6 | 4.8 | 0.00 | 0.00 | 0.00 | 71 | 1015.8 |
| 20260505124025 | 0 | 193 | 0.0 | 4.8 | 0.00 | 0.00 | 0.00 | 71 | 1015.8 |
| 20260505123523 | 0 | 0 | 0.0 | 4.8 | 0.00 | 0.00 | 0.00 | 71 | 1015.8 |
| 20260505123049 | 0 | 274 | 1.6 | 4.8 | 0.00 | 0.00 | 0.00 | 70 | 1015.7 |
| 20260505122523 | 0 | 0 | 0.0 | 3.2 | 0.00 | 0.00 | 0.00 | 70 | 1015.6 |
| 20260505122031 | 0 | 0 | 0.0 | 3.2 | 0.00 | 0.00 | 0.00 | 70 | 1015.5 |
| 20260505121607 | 0 | 0 | 0.0 | 3.2 | 0.00 | 0.00 | 0.00 | 69 | 1015.5 |
| 20260505121023 | 0 | 0 | 0.0 | 3.2 | 0.00 | 0.00 | 0.00 | 70 | 1015.4 |
| 20260505120522 | 0 | 274 | 1.6 | 3.2 | 0.00 | 0.00 | 0.00 | 69 | 1015.5 |
| 20260505120037 | 1 | 273 | 1.6 | 3.2 | 0.00 | 0.00 | 0.00 | 68 | 1015.4 |
| 20260505115522 | 1 | 0 | 0.0 | 3.2 | 0.00 | 0.00 | 0.00 | 68 | 1015.4 |
| 20260505115022 | 1 | 0 | 0.0 | 3.2 | 0.00 | 0.00 | 0.00 | 67 | 1015.4 |
| 20260505114536 | 1 | 0 | 1.6 | 3.2 | 0.00 | 0.00 | 0.00 | 66 | 1015.4 |
| 20260505114023 | 1 | 131 | 0.0 | 4.8 | 0.00 | 0.00 | 0.00 | 65 | 1015.3 |
| 20260505113522 | 1 | 0 | 0.0 | 6.4 | 0.00 | 0.00 | 0.00 | 65 | 1015.2 |
| 20260505113046 | 1 | 131 | 1.6 | 6.4 | 0.00 | 0.00 | 0.00 | 65 | 1015.2 |
| 20260505112530 | 1 | 89 | 1.6 | 3.2 | 0.00 | 0.00 | 0.00 | 65 | 1015.2 |
| 20260505112024 | 1 | 89 | 0.0 | 6.4 | 0.00 | 0.00 | 0.00 | 64 | 1015.1 |
| 20260505111540 | 2 | 0 | 0.0 | 6.4 | 0.00 | 0.00 | 0.00 | 63 | 1015.2 |
| 20260505111025 | 2 | 112 | 1.6 | 6.4 | 0.00 | 0.00 | 0.00 | 63 | 1015.2 |
| 20260505110526 | 2 | 112 | 3.2 | 6.4 | 0.00 | 0.00 | 0.00 | 62 | 1015.2 |
| 20260505102022 | 3 | 96 | 1.6 | 6.4 | 0.00 | 0.00 | 0.00 | 56 | 1015.0 |
| 20260505101544 | 3 | 0 | 0.0 | 6.4 | 0.00 | 0.00 | 0.00 | 55 | 1015.1 |
| 20260505101022 | 4 | 0 | 0.0 | 6.4 | 0.00 | 0.00 | 0.00 | 54 | 1015.0 |
| 20260505100524 | 4 | 0 | 0.0 | 11.3 | 0.00 | 0.00 | 0.00 | 54 | 1015.0 |
| 20260505100048 | 4 | 0 | 1.6 | 11.3 | 0.00 | 0.00 | 0.00 | 53 | 1014.9 |
| 20260505095526 | 5 | 321 | 4.8 | 11.3 | 0.00 | 0.00 | 0.00 | 53 | 1015.0 |
| 20260505095025 | 5 | 326 | 4.8 | 9.7 | 0.00 | 0.00 | 0.00 | 53 | 1015.0 |
| 20260505094542 | 5 | 293 | 4.8 | 11.3 | 0.00 | 0.00 | 0.00 | 52 | 1015.0 |
| 20260505094023 | 5 | 326 | 4.8 | 11.3 | 0.00 | 0.00 | 0.00 | 52 | 1015.0 |
| 20260505093523 | 5 | 332 | 4.8 | 8.0 | 0.00 | 0.00 | 0.00 | 53 | 1015.0 |
| 20260505093038 | 5 | 303 | 1.6 | 4.8 | 0.00 | 0.00 | 0.00 | 54 | 1015.1 |
| 20260505092523 | 5 | 323 | 1.6 | 4.8 | 0.00 | 0.00 | 0.00 | 53 | 1015.0 |
| 20260505092022 | 5 | 323 | 1.6 | 4.8 | 0.00 | 0.00 | 0.00 | 53 | 1015.0 |
| 20260505091549 | 5 | 0 | 1.6 | 8.0 | 0.00 | 0.00 | 0.00 | 52 | 1015.0 |
| 20260505091025 | 6 | 332 | 3.2 | 9.7 | 0.00 | 0.00 | 0.00 | 51 | 1015.0 |
| 20260505090522 | 6 | 339 | 3.2 | 9.7 | 0.00 | 0.00 | 0.00 | 51 | 1015.0 |
| 20260505090055 | 6 | 307 | 3.2 | 8.0 | 0.00 | 0.00 | 0.00 | 50 | 1014.9 |
| 20260505085522 | 6 | 305 | 3.2 | 8.0 | 0.00 | 0.00 | 0.00 | 50 | 1015.0 |
| 20260505085026 | 6 | 311 | 3.2 | 8.0 | 0.00 | 0.00 | 0.00 | 50 | 1014.9 |
| 20260505084538 | 6 | 327 | 3.2 | 8.0 | 0.00 | 0.00 | 0.00 | 50 | 1014.9 |
| 20260505084024 | 6 | 337 | 3.2 | 8.0 | 0.00 | 0.00 | 0.00 | 50 | 1015.0 |
| 20260505083525 | 6 | 340 | 4.8 | 9.7 | 0.00 | 0.00 | 0.00 | 49 | 1015.1 |
| 20260505083047 | 6 | 314 | 3.2 | 12.9 | 0.00 | 0.00 | 0.00 | 49 | 1015.1 |
| 20260505082527 | 7 | 323 | 3.2 | 12.9 | 0.00 | 0.00 | 0.00 | 49 | 1015.1 |
| 20260505082023 | 7 | 304 | 4.8 | 12.9 | 0.00 | 0.00 | 0.00 | 49 | 1015.0 |
| 20260505081543 | 6 | 327 | 3.2 | 9.7 | 0.00 | 0.00 | 0.00 | 50 | 1015.0 |
| 20260505081022 | 6 | 357 | 3.2 | 9.7 | 0.00 | 0.00 | 0.00 | 51 | 1015.1 |
| 20260505080526 | 7 | 311 | 1.6 | 16.1 | 0.00 | 0.00 | 0.00 | 52 | 1015.1 |
| 20260505080045 | 7 | 352 | 3.2 | 16.1 | 0.00 | 0.00 | 0.00 | 50 | 1015.2 |
| 20260505075522 | 7 | 49 | 4.8 | 16.1 | 0.00 | 0.00 | 0.00 | 50 | 1015.2 |
| 20260505075024 | 6 | 0 | 1.6 | 8.0 | 0.00 | 0.00 | 0.00 | 51 | 1015.2 |
| 20260505074539 | 7 | 351 | 3.2 | 8.0 | 0.00 | 0.00 | 0.00 | 51 | 1015.2 |
| 20260505074025 | 7 | 342 | 4.8 | 8.0 | 0.00 | 0.00 | 0.00 | 51 | 1015.2 |
| 20260505073524 | 7 | 4 | 1.6 | 8.0 | 0.00 | 0.00 | 0.00 | 51 | 1015.1 |
| 20260505073045 | 7 | 1 | 3.2 | 9.7 | 0.00 | 0.00 | 0.00 | 50 | 1015.2 |
| 20260505072526 | 7 | 28 | 4.8 | 9.7 | 0.00 | 0.00 | 0.00 | 49 | 1015.2 |
| 20260505072027 | 7 | 341 | 3.2 | 11.3 | 0.00 | 0.00 | 0.00 | 50 | 1015.0 |
| 20260505071543 | 7 | 352 | 6.4 | 11.3 | 0.00 | 0.00 | 0.00 | 51 | 1015.2 |
| 20260505071026 | 7 | 32 | 6.4 | 11.3 | 0.00 | 0.00 | 0.00 | 53 | 1015.2 |
| 20260505070523 | 7 | 13 | 3.2 | 11.3 | 0.00 | 0.00 | 0.00 | 56 | 1015.1 |
| 20260505070038 | 7 | 349 | 6.4 | 11.3 | 0.00 | 0.00 | 0.00 | 56 | 1015.0 |
| 20260505065523 | 7 | 344 | 4.8 | 9.7 | 0.00 | 0.00 | 0.00 | 56 | 1015.0 |
| 20260505065022 | 7 | 17 | 4.8 | 9.7 | 0.00 | 0.00 | 0.00 | 56 | 1015.1 |
| 20260505064536 | 7 | 340 | 3.2 | 9.7 | 0.00 | 0.00 | 0.00 | 57 | 1015.1 |
| 20260505064022 | 7 | 338 | 4.8 | 9.7 | 0.00 | 0.00 | 0.00 | 57 | 1015.0 |
| 20260505063522 | 7 | 359 | 3.2 | 11.3 | 0.00 | 0.00 | 0.00 | 56 | 1015.2 |
| 20260505063046 | 7 | 78 | 4.8 | 14.5 | 0.00 | 0.00 | 0.00 | 56 | 1015.1 |
| 20260505062522 | 7 | 12 | 4.8 | 14.5 | 0.00 | 0.00 | 0.00 | 56 | 1015.1 |
| 20260505062030 | 7 | 30 | 3.2 | 14.5 | 0.00 | 0.00 | 0.00 | 57 | 1015.2 |
| 20260505061539 | 7 | 60 | 6.4 | 14.5 | 0.00 | 0.00 | 0.00 | 57 | 1015.1 |
| 20260505061026 | 7 | 42 | 4.8 | 20.9 | 0.00 | 0.00 | 0.00 | 58 | 1015.1 |
| 20260505060527 | 7 | 30 | 4.8 | 20.9 | 0.00 | 0.00 | 0.00 | 58 | 1015.1 |
| 20260505060039 | 7 | 20 | 8.0 | 17.7 | 0.00 | 0.00 | 0.00 | 58 | 1015.0 |
| 20260505055528 | 7 | 22 | 8.0 | 20.9 | 0.00 | 0.00 | 0.00 | 58 | 1015.0 |
| 20260505055027 | 7 | 355 | 9.7 | 25.7 | 0.00 | 0.00 | 0.00 | 58 | 1015.0 |
| 20260505054558 | 7 | 2 | 11.3 | 25.7 | 0.00 | 0.00 | 0.00 | 58 | 1014.9 |
| 20260505054028 | 7 | 13 | 6.4 | 14.5 | 0.00 | 0.00 | 0.00 | 57 | 1014.9 |
| 20260505053528 | 8 | 356 | 6.4 | 16.1 | 0.00 | 0.00 | 0.00 | 54 | 1014.8 |
| 20260505053048 | 8 | 32 | 6.4 | 16.1 | 0.00 | 0.00 | 0.00 | 52 | 1014.6 |
| 20260505052527 | 8 | 321 | 9.7 | 16.1 | 0.00 | 0.00 | 0.00 | 51 | 1014.5 |
| 20260505052028 | 8 | 354 | 9.7 | 17.7 | 0.00 | 0.00 | 0.00 | 51 | 1014.5 |
| 20260505051542 | 8 | 356 | 8.0 | 17.7 | 0.00 | 0.00 | 0.00 | 51 | 1014.4 |
| 20260505051027 | 8 | 356 | 6.4 | 14.5 | 0.00 | 0.00 | 0.00 | 51 | 1014.3 |
| 20260505050528 | 8 | 319 | 6.4 | 14.5 | 0.00 | 0.00 | 0.00 | 51 | 1014.5 |
| 20260505041548 | 9 | 330 | 9.7 | 19.3 | 0.00 | 0.00 | 0.00 | 49 | 1014.2 |
| 20260505041026 | 9 | 325 | 9.7 | 17.7 | 0.00 | 0.00 | 0.00 | 49 | 1014.0 |
| 20260505040527 | 9 | 347 | 9.7 | 17.7 | 0.00 | 0.00 | 0.00 | 50 | 1014.0 |
| 20260505040042 | 9 | 333 | 6.4 | 11.3 | 0.00 | 0.00 | 0.00 | 50 | 1014.0 |
| 20260505035526 | 9 | 347 | 6.4 | 11.3 | 0.00 | 0.00 | 0.00 | 50 | 1014.0 |
| 20260505035026 | 9 | 13 | 4.8 | 11.3 | 0.00 | 0.00 | 0.00 | 50 | 1014.0 |
| 20260505034537 | 9 | 313 | 4.8 | 11.3 | 0.00 | 0.00 | 0.00 | 49 | 1014.0 |
| 20260505034027 | 9 | 336 | 3.2 | 11.3 | 0.00 | 0.00 | 0.00 | 49 | 1013.9 |
| 20260505033527 | 9 | 333 | 3.2 | 11.3 | 0.00 | 0.00 | 0.00 | 48 | 1013.8 |
| 20260505033037 | 9 | 274 | 3.2 | 11.3 | 0.00 | 0.00 | 0.00 | 49 | 1013.8 |
| 20260505032527 | 9 | 335 | 3.2 | 11.3 | 0.00 | 0.00 | 0.00 | 48 | 1013.8 |
| 20260505032026 | 9 | 307 | 4.8 | 14.5 | 0.00 | 0.00 | 0.00 | 48 | 1013.7 |
| 20260505031541 | 9 | 333 | 8.0 | 14.5 | 0.00 | 0.00 | 0.00 | 48 | 1013.6 |
| 20260505031028 | 9 | 1 | 4.8 | 19.3 | 0.00 | 0.00 | 0.00 | 48 | 1013.6 |
| 20260505030527 | 9 | 336 | 4.8 | 19.3 | 0.00 | 0.00 | 0.00 | 48 | 1013.5 |
| 20260505030053 | 9 | 353 | 6.4 | 14.5 | 0.00 | 0.00 | 0.00 | 48 | 1013.3 |
| 20260505025528 | 9 | 311 | 6.4 | 14.5 | 0.00 | 0.00 | 0.00 | 48 | 1013.4 |
| 20260505025026 | 9 | 330 | 4.8 | 14.5 | 0.00 | 0.00 | 0.00 | 48 | 1013.4 |
| 20260505024537 | 9 | 327 | 8.0 | 16.1 | 0.00 | 0.00 | 0.00 | 48 | 1013.3 |
| 20260505024026 | 9 | 352 | 8.0 | 19.3 | 0.00 | 0.00 | 0.00 | 48 | 1013.3 |
| 20260505023528 | 9 | 347 | 8.0 | 19.3 | 0.00 | 0.00 | 0.00 | 47 | 1013.2 |
| 20260505023042 | 10 | 325 | 8.0 | 24.1 | 0.00 | 0.00 | 0.00 | 47 | 1013.1 |
| 20260505022526 | 10 | 340 | 9.7 | 24.1 | 0.00 | 0.00 | 0.00 | 47 | 1013.2 |
| 20260505022027 | 10 | 338 | 8.0 | 17.7 | 0.00 | 0.00 | 0.00 | 47 | 1013.2 |
| 20260505021549 | 10 | 333 | 8.0 | 17.7 | 0.00 | 0.00 | 0.00 | 46 | 1013.0 |
| 20260505021026 | 10 | 1 | 8.0 | 17.7 | 0.00 | 0.00 | 0.00 | 46 | 1013.0 |
| 20260505020526 | 10 | 286 | 6.4 | 20.9 | 0.00 | 0.00 | 0.00 | 46 | 1012.9 |
| 20260505020049 | 10 | 347 | 8.0 | 24.1 | 0.00 | 0.00 | 0.00 | 46 | 1013.0 |
| 20260505015527 | 10 | 330 | 8.0 | 25.7 | 0.00 | 0.00 | 0.00 | 45 | 1012.8 |
| 20260505015026 | 10 | 314 | 11.3 | 25.7 | 0.00 | 0.00 | 0.00 | 45 | 1012.8 |
| 20260505014537 | 10 | 308 | 11.3 | 22.5 | 0.00 | 0.00 | 0.00 | 44 | 1012.7 |
| 20260505014026 | 10 | 304 | 9.7 | 25.7 | 0.00 | 0.00 | 0.00 | 44 | 1012.7 |
| 20260505013526 | 10 | 324 | 9.7 | 25.7 | 0.00 | 0.00 | 0.00 | 44 | 1012.8 |
| 20260505013043 | 11 | 314 | 8.0 | 19.3 | 0.00 | 0.00 | 0.00 | 43 | 1012.8 |
| 20260505012526 | 11 | 305 | 9.7 | 19.3 | 0.00 | 0.00 | 0.00 | 43 | 1012.8 |
| 20260505012026 | 11 | 333 | 8.0 | 19.3 | 0.00 | 0.00 | 0.00 | 43 | 1012.7 |
| 20260505011541 | 11 | 319 | 8.0 | 19.3 | 0.00 | 0.00 | 0.00 | 43 | 1012.7 |
| 20260505011026 | 11 | 324 | 8.0 | 22.5 | 0.00 | 0.00 | 0.00 | 43 | 1012.6 |
| 20260505010525 | 11 | 335 | 8.0 | 22.5 | 0.00 | 0.00 | 0.00 | 43 | 1012.7 |
| 20260505005527 | 11 | 359 | 8.0 | 17.7 | 0.00 | 0.00 | 0.00 | 43 | 1012.5 |
| 20260505005031 | 11 | 298 | 8.0 | 17.7 | 0.00 | 0.00 | 0.00 | 44 | 1012.5 |
| 20260505004536 | 11 | 309 | 9.7 | 19.3 | 0.00 | 0.00 | 0.00 | 43 | 1012.3 |
| 20260505004027 | 11 | 330 | 9.7 | 19.3 | 0.00 | 0.00 | 0.00 | 43 | 1012.4 |
| 20260505003527 | 11 | 328 | 9.7 | 19.3 | 0.00 | 0.00 | 0.00 | 43 | 1012.3 |
| 20260505003046 | 11 | 317 | 9.7 | 25.7 | 0.00 | 0.00 | 0.00 | 43 | 1012.3 |
| 20260505002529 | 11 | 319 | 11.3 | 25.7 | 0.00 | 0.00 | 0.00 | 43 | 1012.2 |
| 20260505002026 | 11 | 310 | 8.0 | 25.7 | 0.00 | 0.00 | 0.00 | 42 | 1012.1 |
| 20260505001539 | 11 | 327 | 11.3 | 25.7 | 0.00 | 0.00 | 0.00 | 42 | 1012.0 |
| 20260505001025 | 11 | 300 | 11.3 | 25.7 | 0.00 | 0.00 | 0.00 | 42 | 1012.0 |
| 20260505000528 | 11 | 311 | 11.3 | 24.1 | 0.00 | 0.00 | 0.00 | 43 | 1012.0 |
| 20260505000051 | 11 | 262 | 11.3 | 24.1 | 0.00 | 0.00 | 0.00 | 43 | 1011.9 |
| 20260504235527 | 11 | 328 | 12.9 | 24.1 | 0.00 | 0.00 | 0.00 | 42 | 1011.9 |
| 20260504235025 | 11 | 295 | 11.3 | 25.7 | 0.00 | 0.00 | 0.00 | 43 | 1011.8 |
| 20260504234539 | 11 | 305 | 11.3 | 25.7 | 0.00 | 0.00 | 0.00 | 43 | 1011.9 |